User: anonymous   Login
Location: Usti nad Orlici
(49.9830°N, 16.4000°E)
Time: 20:36:05
(UTC+02:00)
Language:

ISS - Orbit

View from above orbital plane
View from above orbital plane
View from above satellite
View from above satellite

Ground track
Ground track

The orbit data is extracted from the following two-line orbital elements,

1 25544U 98067A   19143.55891967  .00016717  00000-0  10270-3 0  9049
2 25544  51.6367 123.5318 0001914  14.6109 345.5098 15.52683577 11420
Epoch (UTC): 23 May 2019 13:24:50
Eccentricity: 0.0001914
inclination: 51.6367°
perigee height: 407 km
apogee height: 410 km
right ascension of ascending node: 123.5318°
argument of perigee: 14.6109°
revolutions per day: 15.52683577
mean anomaly at epoch: 345.5098°
orbit number at epoch: 1142

The dashed part of the orbit path shows where the satellite is in the earth's shadow,  

DLR